Regional Weather Roundup
Issued by NWS

Home | Current Version | Previous Version | Text Only | Print | Product List | Glossary Off
Versions: 1 2 3 4 5 6 7 8 9 10 11 12 13 14 15 16 17 18 19 20 21 22 23 24 25 26 27 28 29 30 31 32 33 34 35 36 37 38 39 40 41 42 43 44 45 46 47 48 49 50

000
ASUS43 KMKX 101611
RWRWI

WISCONSIN REGIONAL WEATHER ROUNDUP
NATIONAL WEATHER SERVICE MILWAUKEE/SULLIVAN WI
1100 AM CDT THU JUL 10 2014

NOTE: "FAIR" INDICATES FEW OR NO CLOUDS BELOW 12,000 FEET WITH NO
SIGNIFICANT WEATHER AND/OR OBSTRUCTIONS TO VISIBILITY.

WIZ001-002-006>008-014>016-023>028-101700-
NORTHWEST WISCONSIN

CITY           SKY/WX    TMP DP  RH WIND       PRES   REMARKS
SUPERIOR ARPT  SUNNY     68  58  70 E6        30.06S
ASHLAND        SUNNY     74  58  57 SW9       30.09F
HAYWARD        SUNNY     73  56  54 S12       30.09F
SIREN          SUNNY     76  58  54 S9G17     30.07S
RICE LAKE      SUNNY     73  58  60 SE9       30.10F
LADYSMITH      SUNNY     73  58  59 S9G16     30.13S
EAU CLAIRE     SUNNY     75  59  57 S9        30.09R
MENOMONIE      SUNNY     74  61  62 S6        30.09S
NEW RICHMOND   SUNNY     74  60  62 SE6       30.07S
OSCEOLA        SUNNY     74  61  63 SE7       30.09S
$$

WIZ003>005-009-010-017-018-101700-
NORTH CENTRAL WISCONSIN

CITY           SKY/WX    TMP DP  RH WIND       PRES   REMARKS
WOODRUFF       SUNNY     72  55  55 S6        30.14S
RHINELANDER    SUNNY     69  53  56 SW9       30.16S
EAGLE RIVER    MOSUNNY   69  50  50 SW6       30.15R
LAND O LAKES   SUNNY     70  49  48 S6        30.15S
PHILLIPS       SUNNY     70  56  61 S9        30.12S
TOMAHAWK       SUNNY     70  55  59 CALM      30.15S
MEDFORD        SUNNY     70  56  61 S9        30.14S
MERRILL        SUNNY     71  56  59 SW7       30.14F
$$

WIZ029-030-035-036-043>047-101700-
CENTRAL WISCONSIN

CITY           SKY/WX    TMP DP  RH WIND       PRES   REMARKS
WAUSAU         SUNNY     71  54  54 S8        30.14S
MOSINEE        SUNNY     70  57  64 S8        30.16S
MARSHFIELD     SUNNY     72  57  59 S10       30.14S
STEVENS POINT  SUNNY     71  53  53 S8        30.16S
WAUPACA        SUNNY     75  54  47 S6        30.16S
WAUTOMA        SUNNY     75  55  49 S8        30.16S
WISC RAPIDS    SUNNY     75  54  47 SW10      30.15S
CAMP DOUGLAS   MOSUNNY   75  59  57 SE12G18   30.13F
$$

WIZ011>013-019>022-031-037>040-048>050-101700-
NORTHEAST WISCONSIN

CITY           SKY/WX    TMP DP  RH WIND       PRES   REMARKS
ANTIGO         SUNNY     68  55  61 SW6       30.17S
STURGEON BAY   MOSUNNY   66  57  72 S8        30.19R
GREEN BAY      SUNNY     71  52  50 CALM      30.17R
MANITOWOC      SUNNY     65  53  65 SE10      30.19R
APPLETON       SUNNY     72  50  46 VRB6      30.17S
CLINTONVILLE   SUNNY     72  52  49 S6        30.16R
OSHKOSH        SUNNY     73  54  51 S6        30.17R
$$

WIZ032>034-041-042-053>061-101700-
SOUTHWEST WISCONSIN

CITY           SKY/WX    TMP DP  RH WIND       PRES   REMARKS
LA CROSSE      SUNNY     76  61  59 S13       30.11R
SPARTA         SUNNY     75  56  52 S7        30.12S
VIROQUA        FAIR      73  60  61 S12       30.15R
BOSCOBEL       MOSUNNY   77  60  55 VRB5      30.14S
PRAIRIE DU CHI MOSUNNY   74  58  57 S8        30.13S
PLATTEVILLE    FAIR      74  61  64 S8        30.17S
$$

WIZ056-057-062-063-064-067-068-101700-
SOUTH CENTRAL WISCONSIN

CITY           SKY/WX    TMP DP  RH WIND       PRES   REMARKS
BARABOO/DELLS  CLOUDY    72  53  51 S9        30.16S
LONE ROCK      PTSUNNY   77  60  55 S6        30.15S
WATERTOWN      SUNNY     73  54  52 SW5       30.17R
MADISON        PTSUNNY   74  53  48 SW6       30.17R
MIDDLETON      CLOUDY    73  53  48 S9        30.18R
MONROE         CLOUDY    70  55  60 S7        30.19R
JANESVILLE     MOSUNNY   75  54  46 W9        30.17R
$$

WIZ051-052-058>065-066-070>072-101700-
SOUTHEAST WISCONSIN

CITY           SKY/WX    TMP DP  RH WIND       PRES   REMARKS
MILWAUKEE      MOSUNNY   69  58  67 E9        30.20R
WAUKESHA       MOSUNNY   72  54  53 CALM      30.20R
MILWAUKEE/TIMM MOSUNNY   72  54  53 CALM      30.19R
RACINE         SUNNY     69  57  65 SE9       30.22R
BURLINGTON     SUNNY     72  55  54 SW5       30.19R
KENOSHA        SUNNY     71  59  65 E8        30.20R
FOND DU LAC    SUNNY     73  53  49 S6        30.17S
SHEBOYGAN      MOSUNNY   70  58  65 MISG      30.19R
WEST BEND      SUNNY     70  50  49 S5        30.19R
JUNEAU         SUNNY     72  38  28 S6        30.19S
$$

LSZ147-162-101700-
LAKE SUPERIOR

STATION/POSITION TIME  TEMP    WIND        PRES    WAVE
                       AIR SEA DIR/SP/G            HT/PER
                 (UTC) (F)     (DEG/KT/KT) (MB)    (FT/S)
W MID LAKE BUOY  1550   45 39  120/  4/  6 1019.7S   0
DEVILS ISLAND    1500   65      70/  1/  3 1018.8F
PORT WING        1500   60      30/  8/  9 1018.3F
SAXON HARBOR     1500          190/  3/ 11 1019.0S
$$

LMZ867-665-643>646-101700-
LAKE MICHIGAN

STATION/POSITION TIME  TEMP    WIND        PRES    WAVE
                       AIR SEA DIR/SP/G            HT/PER
                 (UTC) (F)     (DEG/KT/KT) (MB)    (FT/S)
N MID LAKE BUOY  1550   55 54  190/  8/ 10 1022.1R   0
NORTHPORT PIER   1500   61     150/ 11/ 13 1021.7R
KEWAUNEE LAKESHO 1500   51     160/  5/  5 1022.6R
SHEBOYGAN LAKESH 1600   58     130/  6/  7 1022.8R
PORT WASHINGTON  1500   60      90/  2/  2 1022.7
MILWAUKEE LAKESH 1500   59      50/  4/  5   N/A
S MID LAKE BUOY  1550   58 57  110/  2/  4 1022.9R   0
KENOSHA   LAKESH 1600   64     130/  8/  8   N/A
$$

TC  - TEMPERATURE IN CELSIUS
VSB - VISIBILITY IN STATUTE MILES
WCI - WIND CHILL INDEX
HX  - HEAT INDEX



USA.gov is the U.S. government's official web portal to all federal, state and local government web resources and services.